[[{"header":{"parameterUnit":"m.s-1","parameterCategory":1,"la1":30.2992,"la2":30.254,"lo1":-89.0895,"lo2":-89.0443,"dy":0.0025,"dx":0.0025,"nx":19,"ny":19,"refTime":"2026-03-10T03:00:00:Z","depth":0,"parameterNumber":2,"parameterNumberName":"U-component_of_WINDS"},"data":[0,0,0,-2.0171,-2.0172,-2.0264,-2.0265,-2.0377,-2.0378,0,0,0,0,0,0,0,0,0,0,0,-2.0139,-2.014,-2.017,-2.0173,-2.0264,-2.0265,-2.0377,-2.0378,0,0,0,0,0,0,0,0,0,0,0,-2.0139,-2.014,-2.0141,-2.0173,-2.0264,-2.0265,-2.0377,-2.0309,0,0,0,0,0,0,0,0,0,0,-2.0221,-2.0188,-2.014,-2.0141,-2.0173,-2.0264,-2.0265,-2.0306,-2.0314,-2.0333,0,-2.0348,0,-2.0365,-2.0385,-2.0385,0,0,0,-2.0176,-2.0182,-2.021,-2.0141,-2.0174,-2.0264,-2.0224,-2.0311,-2.0319,-2.0343,-2.035,-2.0354,-2.0367,-2.0386,-2.0386,-2.0483,-2.0483,0,0,-2.0171,-2.0154,-2.0205,-2.0215,-2.02,-2.0221,-2.0227,-2.0316,-2.0323,-2.035,-2.0357,-2.0368,-2.0386,-2.0387,-2.0483,-2.0483,0,0,0,-2.0154,-2.015,-2.0177,-2.0211,-2.0227,-2.0223,-2.023,-2.0319,-2.0329,-2.0358,-2.037,-2.0387,-2.0388,-2.0483,-2.0483,-2.0479,0,0,0,-2.0151,-2.0141,-2.0174,-2.0165,-2.0226,-2.0274,-2.0231,-2.0322,-2.0333,-2.0369,-2.0387,-2.0389,-2.0482,-2.0483,-2.0479,-2.048,0,0,0,-2.0135,-2.0139,-2.015,-2.0164,-2.0202,-2.0273,-2.0288,-2.0325,-2.034,-2.0386,-2.039,-2.0482,-2.0483,-2.0478,-2.048,-2.05,0,0,0,-2.0113,-2.0147,-2.015,-2.0193,-2.0201,-2.027,-2.0288,-2.034,-2.0379,-2.0388,-2.0482,-2.0483,-2.0478,-2.0479,-2.0499,-2.0512,-2.0517,0,0,-2.0147,-2.0151,-2.0178,-2.0183,-2.0246,-2.0257,-2.0321,-2.0373,-2.0394,-2.0453,-2.0455,-2.0479,-2.048,-2.0499,-2.0549,-2.0552,0,0,0,-2.0183,-2.0201,-2.0222,-2.0257,-2.0297,-2.0331,-2.0376,-2.0395,-2.0445,-2.042,-2.0493,-2.0494,-2.0506,-2.0513,-2.0516,-2.0528,-2.0486,-2.0486,-2.0486,-2.0206,-2.023,-2.0275,-2.0309,-2.0343,-2.0388,-2.0418,-2.0452,-2.0467,-2.0484,-2.0501,-2.0528,-2.0535,-2.0538,-2.0549,-2.0511,-2.0511,-2.0511,-2.0511,-2.0258,-2.0287,-2.0305,-2.0355,-2.038,-2.0423,-2.0468,-2.0477,-2.0521,-2.0517,-2.0529,-2.0522,-2.054,-2.0552,-2.0511,-2.0511,-2.0511,-2.0511,-2.0511,-2.0275,-2.0293,-2.0315,-2.0367,-2.0405,-2.044,-2.048,-2.0503,-2.0524,-2.0536,-2.0556,-2.0556,-2.0558,-2.0544,-2.0544,-2.0544,-2.0544,-2.0544,-2.0544,-2.0283,-2.0308,-2.0339,-2.0383,-2.0408,-2.0444,-2.0489,-2.0515,-2.0549,-2.0562,-2.0562,-2.0574,-2.0538,-2.0527,-2.0546,-2.0546,-2.0545,-2.0545,-2.0545,-2.0325,-2.0319,-2.0366,-2.0391,-2.0444,-2.048,-2.0507,-2.0557,-2.0582,-2.0601,-2.0612,-2.0581,-2.0587,-2.0585,-2.0577,-2.0607,-2.0607,-2.0607,-2.0607,-2.0338,-2.0343,-2.0396,-2.0434,-2.0474,-2.0503,-2.0556,-2.0591,-2.0628,-2.0644,-2.0643,-2.0634,-2.0631,-2.0639,-2.0636,-2.0628,-2.0671,-2.0671,-2.0671,-2.0365,-2.0374,-2.0415,-2.0448,-2.0491,-2.0528,-2.0579,-2.0622,-2.0662,-2.0674,-2.0658,-2.0655,-2.0641,-2.0635,-2.0645,-2.064,-2.0626,0,0]},{"header":{"parameterUnit":"m.s-1","parameterCategory":1,"la1":30.2992,"la2":30.254,"lo1":-89.0895,"lo2":-89.0443,"dy":0.0025,"dx":0.0025,"nx":19,"ny":19,"refTime":"2026-03-10T03:00:00:Z","depth":0,"parameterNumber":3,"parameterNumberName":"V-component_of_WINDS"},"data":[0,0,0,4.3401,4.3405,4.3556,4.3557,4.375,4.3752,0,0,0,0,0,0,0,0,0,0,0,4.3354,4.3355,4.3401,4.3405,4.3556,4.3557,4.375,4.3752,0,0,0,0,0,0,0,0,0,0,0,4.3353,4.3355,4.3356,4.3405,4.3556,4.3557,4.3749,4.3636,0,0,0,0,0,0,0,0,0,0,4.3489,4.3442,4.3354,4.3356,4.3406,4.3556,4.3557,4.363,4.3643,4.3681,0,4.3712,0,4.3735,4.3765,4.3765,0,0,0,4.3407,4.3431,4.3475,4.3357,4.3408,4.3556,4.3489,4.3637,4.3652,4.3697,4.3714,4.3722,4.3738,4.3766,4.3767,4.3974,4.3975,0,0,4.3399,4.338,4.3465,4.3484,4.3458,4.3484,4.3493,4.3646,4.3664,4.3715,4.3726,4.3741,4.3767,4.3769,4.3973,4.3974,0,0,0,4.3373,4.3374,4.3414,4.3476,4.3503,4.3488,4.3499,4.3657,4.3672,4.3728,4.3743,4.3768,4.3771,4.3972,4.3974,4.3999,0,0,0,4.3368,4.3359,4.341,4.34,4.35,4.3581,4.3507,4.3661,4.3679,4.3742,4.3768,4.3772,4.3972,4.3973,4.3996,4.4014,0,0,0,4.3345,4.3356,4.3377,4.3399,4.3463,4.3579,4.3603,4.3665,4.3688,4.3765,4.3773,4.3971,4.3973,4.3994,4.401,4.4065,0,0,0,4.3315,4.3396,4.3377,4.3475,4.3461,4.3593,4.3602,4.3701,4.377,4.3769,4.3972,4.3974,4.3993,4.4008,4.4062,4.4109,4.4126,0,0,4.3407,4.3407,4.3466,4.3453,4.3583,4.3571,4.3706,4.3787,4.3812,4.3919,4.3925,4.3997,4.401,4.4065,4.4225,4.4239,0,0,0,4.3489,4.3531,4.357,4.3634,4.3698,4.3756,4.3818,4.3849,4.3941,4.3863,4.4031,4.404,4.4073,4.4096,4.4107,4.4138,4.3983,4.3983,4.3983,4.3593,4.3621,4.3721,4.3768,4.3831,4.3896,4.3951,4.4004,4.4013,4.4053,4.4085,4.4179,4.4205,4.4214,4.4246,4.411,4.411,4.4111,4.4111,4.3733,4.3799,4.381,4.3911,4.3942,4.4028,4.4095,4.4099,4.4186,4.4156,4.4186,4.4152,4.4228,4.4257,4.4113,4.4112,4.4112,4.4112,4.4112,4.3806,4.3842,4.3878,4.3977,4.405,4.4095,4.4179,4.4203,4.4226,4.4256,4.4295,4.4295,4.4299,4.4273,4.4273,4.4273,4.4274,4.4274,4.4274,4.3868,4.3907,4.3974,4.405,4.4097,4.4161,4.423,4.4277,4.4336,4.4347,4.4348,4.4355,4.4229,4.4198,4.4279,4.4278,4.4278,4.4277,4.4277,4.4002,4.3976,4.4078,4.4125,4.4219,4.4293,4.4322,4.4417,4.446,4.4501,4.4503,4.4405,4.4406,4.4397,4.4372,4.4494,4.4494,4.4494,4.4494,4.4065,4.4068,4.418,4.4254,4.4329,4.4367,4.4486,4.4541,4.4594,4.4623,4.4609,4.4577,4.4567,4.4575,4.4562,4.4539,4.4701,4.4701,4.4701,4.4151,4.4162,4.4258,4.4308,4.4384,4.445,4.4564,4.465,4.4705,4.471,4.4648,4.4639,4.4588,4.4569,4.4573,4.4552,4.451,0,0]}]]